YAOGAN-32 A

Satellite information

Favourite Embed

Satellite Type and Status

PAYLOADIN ORBIT

Key statistics

Satellite YAOGAN-32 A at a glance.

Uptime

2576

Days in orbit

Revolutions

≈ 14.6

Per day

Orbit

SSO

Sun Synchronous Orbit

Inclination

97.9

Latest

Satellite identification and parameters

Extended collection of information and parameters for YAOGAN-32 A.

Object identification

Identified? True

Debris? False

Object name: YAOGAN-32 A

International designator: 2018-077A

Object number (NORAD): 43642

Object ID (CCSDS): 43642

Country: PEOPLES REPUBLIC OF CHINA (PRC)

Current information (Y/N): Y

RCS size: LARGE

Orbital parameters

Period: 98.44 minutes

Inclination: 97.9295 deg

SMA: 7062.199 km

Apoapsis: 685.049 km

Periapsis: 683.079 km

RAAN: 329.6481 deg

Eccentricy: 0.00013947

Argument of periapsis: 100.5499 deg

Mean anomaly: 259.586 deg

Mean motion: 14.62826662 rev/day

Mean motion (dot): 0.00001127 rev/day2

B* drag term: 0.00022947836 1/REarth

Two-line elements (TLE)

Creation date: Oct. 28, 2025, 2:18 a.m.

Reference frame: TEME

Reference center: EARTH

Epoch: Oct. 28, 2025, midnight UTC

TLE line 0: 0 YAOGAN-32 A

TLE line 1: 1 43642U 18077A 25301.00021628 .00001127 00000-0 22948-3 0 9991

TLE line 2: 2 43642 97.9295 329.6481 0001395 100.5499 259.5860 14.62826662375891

Live tracking on map

Real-time ground track for satellite YAOGAN-32 A.

In-orbit conjunctions

There are no conjunctions computed for YAOGAN-32 A, at the moment. Check back to stay up to date, as we update our databases every day.

Go to all conjunctions

Associated space launch

Yaogan is a series of Chinese reconnaissance satellites.

YAOGAN-32 A was lifted into orbit during the mission ‘Long March 2C/YZ-1S | Yaogan-32-01’, on board a Long March 2C/YZ-1S space rocket.

The launch took place on Oct. 9, 2018, 2:43 a.m. from Launch Area 4 (SLS-2 / 603).

For more information about the launch, click the button.

Launch to space Long March 2C/YZ-1S | Yaogan-32-01
Long March 2C/YZ-1S | Yaogan-32-01

Agency: N/A

Status: Launch Successful

Launch date: Oct. 9, 2018, 2:43 a.m. UTC

Rocket: Long March 2C/YZ-1S

Launch pad: Launch Area 4 (SLS-2 / 603)

Location: Jiuquan Satellite Launch Center, People's Republic of China

...

Latest news about this satellite

There are no fresh news available about this satellite. Check back as we update our databases every day.


Newsletter sign-up

Weekly statistics, charts and insights to help you stay on top of the space industry.